Location: Copeville
(33.0796°N, 96.4155°W)
Time: 06:33:13
(UTC+00:00)

JUGNU - Pass Details

Date: 21 April 2024
Orbit: 835 x 862 km, 20.0° (Epoch: 19 May)

Event Time Altitude Azimuth Distance (km) Brightness Sun altitude
Rises 03:16:50 0° 249° (WSW) 3,376 ? -26.5°
Reaches altitude 10° 03:20:09 10° 231° (SW) 2,446 ? -27.1°
Enters shadow 03:22:12 16° 212° (SSW) 2,060 ? -27.4°
